[[{"header":{"parameterUnit":"m.s-1","parameterCategory":2,"la1":30.2991,"la2":30.254,"lo1":-89.0895,"lo2":-89.0444,"dy":0.0017,"dx":0.0017,"nx":28,"ny":28,"refTime":"2023-10-20T21:00:00:Z","depth":"0","parameterNumber":2,"parameterNumberName":"U-component_of_CURRENTS"},"data":[0,0,0,0,0,0,0,0,0,0,0,0,0,0,0,0,0,0,0,0,0,0,0,0,0,0,0,0,0,0,0,0,0,0,0,0,0,0,0,0,0,0,0,0,0,0,0,0,0,0,0,0,0,0,0,0,0,0,0.3728,0.3729,0,0.3856,0.3857,0.3859,0.3915,0.3915,0.3915,0.3915,0.4032,0.4035,0.4038,0,0,0,0,0,0,0,0,0,0,0,0,0,0.3589,0.3591,0.3728,0.3729,0.3731,0.3855,0.3857,0.3859,0.3916,0.3915,0.3915,0.3914,0.4031,0.4035,0.4039,0,0,0,0,0,0,0,0,0,0,0,0,0,0.3677,0.3592,0.3728,0.3773,0.3778,0.3855,0.3857,0.386,0.3916,0.3915,0.3915,0.3914,0.4029,0.4034,0.4039,0.408,0,0,0.4055,0.4057,0,0,0,0,0,0,0,0,0.3672,0.3683,0.3765,0.377,0.3776,0.3868,0.3851,0.3932,0.3916,0.3865,0.3915,0.3914,0.3975,0.3985,0.4012,0.4086,0.4091,0.4055,0.4058,0.4061,0.4062,0,0,0,0,0,0,0,0.3666,0.3678,0.378,0.3766,0.3773,0.3806,0.3817,0.3867,0.3922,0.3869,0.3873,0.3885,0.3978,0.4007,0.4015,0.4092,0.4055,0.406,0.4063,0.4065,0.4292,0.4294,0,0,0,0,0,0,0.3645,0.3672,0.3776,0.3784,0.372,0.3808,0.3822,0.384,0.3922,0.3934,0.3886,0.3887,0.3999,0.4009,0.402,0.4138,0.4061,0.4065,0.4068,0.4289,0.4292,0.4295,0,0,0,0,0,0,0.3642,0.3654,0.3771,0.3729,0.3746,0.3811,0.3831,0.3843,0.3878,0.3934,0.3946,0.3909,0.3999,0.4012,0.4092,0.414,0.4068,0.4072,0.4285,0.429,0.4294,0.4332,0,0,0,0,0,0,0.3637,0.3652,0.3667,0.3728,0.3747,0.3838,0.3832,0.3845,0.3884,0.3888,0.3958,0.3968,0.3999,0.4084,0.4097,0.4145,0.4076,0.4281,0.4287,0.4292,0.4327,0.4337,0.4346,0,0,0,0,0,0.3632,0.3674,0.3667,0.368,0.3763,0.384,0.3855,0.3899,0.3886,0.3923,0.3968,0.3966,0.4128,0.4091,0.4105,0.4156,0.4279,0.4286,0.4292,0.4322,0.4335,0.4345,0,0,0,0,0,0,0.3642,0.3684,0.3679,0.3734,0.3783,0.385,0.3893,0.3901,0.3965,0.3966,0.4001,0.4017,0.4111,0.413,0.4086,0.4241,0.4205,0.4214,0.4223,0.4235,0.4244,0.4339,0.4081,0,0,0,0,0,0.364,0.3678,0.3718,0.3769,0.3787,0.383,0.3865,0.3889,0.3947,0.3973,0.4025,0.4083,0.4151,0.4185,0.4253,0.4327,0.4393,0.4373,0.4382,0.439,0.4479,0.4607,0.4636,0.4317,0.4317,0.4317,0,0,0.3672,0.3689,0.372,0.3772,0.381,0.3871,0.3853,0.3914,0.3976,0.3976,0.4085,0.4122,0.4181,0.4279,0.4321,0.4297,0.4503,0.4398,0.4404,0.4492,0.4617,0.4648,0.4676,0.4322,0.4321,0.432,0,0,0.3761,0.3751,0.3818,0.3845,0.3891,0.391,0.3923,0.3989,0.4028,0.4111,0.4142,0.423,0.4301,0.4391,0.443,0.4537,0.4553,0.4522,0.4643,0.4762,0.479,0.4816,0.4883,0.4915,0.4519,0.452,0.452,0,0.3804,0.3873,0.3855,0.3913,0.3963,0.3926,0.4021,0.4044,0.4134,0.4214,0.4154,0.436,0.4379,0.4556,0.4586,0.4566,0.4612,0.458,0.4776,0.4803,0.4829,0.4892,0.4927,0.4522,0.4522,0.4522,0.4521,0,0.3939,0.3986,0.4027,0.408,0.4125,0.4194,0.4211,0.427,0.4277,0.4329,0.4492,0.453,0.4669,0.4659,0.4649,0.4851,0.4813,0.477,0.4743,0.4864,0.4921,0.4956,0.4526,0.4525,0.4524,0.4524,0,0,0.4106,0.4123,0.4147,0.4185,0.422,0.4277,0.4368,0.4489,0.4576,0.4628,0.4788,0.4889,0.491,0.4963,0.4957,0.5052,0.5214,0.4988,0.4992,0.5051,0.5451,0.536,0.5389,0.5186,0.5194,0.52,0.5396,0,0.4244,0.4352,0.4348,0.4477,0.454,0.4539,0.4624,0.471,0.4762,0.4882,0.4948,0.5067,0.5012,0.5061,0.5159,0.5207,0.532,0.5165,0.5336,0.5343,0.5244,0.5434,0.5106,0.525,0.543,0.5436,0.544,0,0.4418,0.4457,0.4586,0.4662,0.4697,0.4758,0.491,0.4985,0.5114,0.5163,0.5303,0.5313,0.5485,0.5371,0.5596,0.5489,0.552,0.5537,0.5543,0.55,0.5323,0.5174,0.5308,0.5162,0.5495,0.549,0.5487,0,0.4534,0.4651,0.4744,0.4768,0.4828,0.4921,0.498,0.5104,0.5184,0.5354,0.5407,0.5598,0.5655,0.5774,0.5785,0.5709,0.5989,0.5872,0.5846,0.5835,0.5626,0.5585,0.5652,0.6098,0.6098,0.6097,0.6097,0,0.4672,0.4766,0.4796,0.4826,0.4969,0.501,0.5163,0.525,0.5374,0.5465,0.5548,0.5639,0.5759,0.5874,0.5901,0.5994,0.6095,0.5965,0.5929,0.5619,0.5578,0.5495,0.5419,0.6105,0.6103,0.6102,0.61,0,0.4774,0.4784,0.4887,0.4963,0.4997,0.5101,0.5211,0.5298,0.5417,0.5535,0.5585,0.5727,0.588,0.5978,0.6159,0.612,0.6048,0.6231,0.5837,0.5755,0.5559,0.5495,0.5454,0.5314,0.6255,0.6255,0.6255,0,0.4819,0.487,0.495,0.4979,0.5009,0.5135,0.5185,0.5316,0.5384,0.5561,0.5601,0.5795,0.5875,0.6107,0.6135,0.624,0.6048,0.597,0.5804,0.5603,0.5507,0.5304,0.5174,0.5505,0.5499,0.5494,0.5489,0,0.4882,0.4902,0.4942,0.4996,0.5049,0.5125,0.5212,0.5259,0.5381,0.547,0.558,0.5674,0.5865,0.5817,0.5952,0.5963,0.5649,0.5867,0.5772,0.508,0.4756,0.4578,0.5293,0.5443,0.5448,0.5451,0.5453,0.5455,0.4899,0.4938,0.4939,0.5002,0.5036,0.5055,0.5067,0.5134,0.5205,0.5239,0.5437,0.5437,0.5467,0.5614,0.5616,0.5371,0.5421,0.5142,0.5127,0.4978,0.4719,0.5343,0.5379,0.5383,0.5387,0.539,0.5393,0,0.4877,0.4892,0.4934,0.4938,0.4915,0.4977,0.5009,0.4953,0.4939,0.5019,0.5083,0.4978,0.4934,0.4935,0.4802,0.4625,0.4424,0.4484,0.4105,0.4053,0.4703,0.4544,0.426,0.426,0.4261,0.4261,0.4261,0.4261,0.4845,0.4844,0.4858,0.4783,0.4778,0.4685,0.4667,0.4586,0.4582,0.4407,0.4283,0.4323,0.436,0.434,0.4141,0.4049,0.3771,0.3554,0.3677,0.4091,0.4149,0.4204,0.404,0.3655,0.3654,0.2782,0.2775,0.277]},{"header":{"parameterUnit":"m.s-1","parameterCategory":2,"la1":30.2991,"la2":30.254,"lo1":-89.0895,"lo2":-89.0444,"dy":0.0017,"dx":0.0017,"nx":28,"ny":28,"refTime":"2023-10-20T21:00:00:Z","depth":"0","parameterNumber":3,"parameterNumberName":"V-component_of_CURRENTS"},"data":[0,0,0,0,0,0,0,0,0,0,0,0,0,0,0,0,0,0,0,0,0,0,0,0,0,0,0,0,0,0,0,0,0,0,0,0,0,0,0,0,0,0,0,0,0,0,0,0,0,0,0,0,0,0,0,0,0,0,-0.1018,-0.1019,0,-0.1076,-0.1077,-0.1077,-0.1169,-0.117,-0.1172,-0.1173,-0.1213,-0.1213,-0.1212,0,0,0,0,0,0,0,0,0,0,0,0,0,-0.0955,-0.0956,-0.1018,-0.1019,-0.102,-0.1076,-0.1077,-0.1077,-0.1168,-0.117,-0.1172,-0.1174,-0.1213,-0.1213,-0.1212,0,0,0,0,0,0,0,0,0,0,0,0,0,-0.0994,-0.0956,-0.1018,-0.1072,-0.1077,-0.1076,-0.1077,-0.1078,-0.1168,-0.117,-0.1173,-0.1175,-0.1214,-0.1213,-0.1212,-0.1158,0,0,-0.121,-0.121,0,0,0,0,0,0,0,0,-0.0992,-0.0997,-0.1063,-0.1068,-0.1074,-0.1118,-0.1069,-0.1104,-0.1167,-0.1133,-0.1173,-0.1176,-0.1178,-0.118,-0.1186,-0.116,-0.1162,-0.121,-0.121,-0.1209,-0.1209,0,0,0,0,0,0,0,-0.0989,-0.0995,-0.1041,-0.1064,-0.107,-0.1082,-0.1091,-0.1076,-0.1141,-0.1137,-0.1143,-0.1149,-0.1181,-0.1186,-0.1187,-0.1163,-0.121,-0.1209,-0.1209,-0.1209,-0.1104,-0.1102,0,0,0,0,0,0,-0.0981,-0.0992,-0.1039,-0.1043,-0.1038,-0.1081,-0.1091,-0.1101,-0.1141,-0.115,-0.1147,-0.1153,-0.1186,-0.1188,-0.1189,-0.109,-0.1209,-0.1209,-0.1208,-0.1106,-0.1104,-0.1101,0,0,0,0,0,0,-0.098,-0.0985,-0.1037,-0.1018,-0.1026,-0.108,-0.109,-0.1101,-0.1104,-0.1149,-0.1158,-0.1139,-0.1188,-0.119,-0.1158,-0.1094,-0.1208,-0.1208,-0.1109,-0.1106,-0.1102,-0.0917,0,0,0,0,0,0,-0.0977,-0.0984,-0.0968,-0.1018,-0.1027,-0.0997,-0.1088,-0.11,-0.1104,-0.1113,-0.1145,-0.1152,-0.119,-0.1158,-0.1157,-0.1095,-0.1207,-0.1112,-0.1108,-0.1103,-0.0926,-0.0907,-0.0891,0,0,0,0,0,-0.0975,-0.092,-0.0967,-0.0972,-0.1011,-0.0994,-0.0997,-0.1046,-0.1101,-0.1065,-0.1104,-0.1151,-0.1131,-0.1154,-0.1154,-0.1091,-0.1114,-0.1109,-0.1104,-0.0933,-0.0911,-0.0892,0,0,0,0,0,0,-0.085,-0.0926,-0.0979,-0.0944,-0.0961,-0.1009,-0.0966,-0.1027,-0.1031,-0.1034,-0.1108,-0.1114,-0.1066,-0.1102,-0.1128,-0.1052,-0.1134,-0.1128,-0.1005,-0.0984,-0.0967,-0.0931,-0.1207,0,0,0,0,0,-0.0826,-0.0821,-0.0888,-0.0848,-0.0851,-0.0914,-0.0912,-0.0949,-0.097,-0.0977,-0.1009,-0.1036,-0.104,-0.1033,-0.1037,-0.0979,-0.0988,-0.0945,-0.0927,-0.0912,-0.0884,-0.0849,-0.0824,-0.1084,-0.1084,-0.1084,0,0,-0.076,-0.0801,-0.0794,-0.0823,-0.0838,-0.0802,-0.0915,-0.0883,-0.0854,-0.0974,-0.0919,-0.0966,-0.1013,-0.0958,-0.094,-0.098,-0.0838,-0.0906,-0.0892,-0.0872,-0.084,-0.0815,-0.0792,-0.108,-0.1081,-0.1081,0,0,-0.0616,-0.0664,-0.0618,-0.0625,-0.0645,-0.0683,-0.0672,-0.0712,-0.0728,-0.069,-0.078,-0.0785,-0.078,-0.0806,-0.0821,-0.0706,-0.0749,-0.0718,-0.0592,-0.0556,-0.0534,-0.0515,-0.0464,-0.0441,-0.0707,-0.0706,-0.0706,0,-0.053,-0.0513,-0.0586,-0.0537,-0.0532,-0.0624,-0.0563,-0.0567,-0.0592,-0.0596,-0.0638,-0.0659,-0.0701,-0.0663,-0.0635,-0.0662,-0.0649,-0.0664,-0.053,-0.0512,-0.0495,-0.0448,-0.0426,-0.0697,-0.0698,-0.0699,-0.07,0,-0.0376,-0.0354,-0.0305,-0.0306,-0.0294,-0.0245,-0.0289,-0.0271,-0.0318,-0.0354,-0.0329,-0.0389,-0.0414,-0.0428,-0.0493,-0.0409,-0.0438,-0.0512,-0.0576,-0.0457,-0.0416,-0.0396,-0.0683,-0.0687,-0.0689,-0.0692,0,0,-0.0224,-0.0209,-0.0197,-0.0182,-0.0186,-0.0163,-0.0095,-0.0091,-0.0067,-0.008,-0.0046,-0.0068,-0.0141,-0.0164,-0.0251,-0.0226,-0.0102,-0.0306,-0.0309,-0.024,0.0004,-0.0029,-0.0012,-0.0151,-0.0147,-0.0144,-0.0003,0,-0.0093,0.0012,-0.0017,0.0093,0.0132,0.0076,0.013,0.0128,0.0108,0.0134,0.0071,0.0079,-0.0028,-0.0048,-0.0029,-0.0098,-0.0045,-0.0132,-0.0134,-0.0133,-0.0166,0.0011,-0.0022,0.01,0.0016,0.0019,0.0021,0,0.0034,0.0077,0.0191,0.0221,0.0236,0.0289,0.0312,0.0355,0.0362,0.0349,0.0349,0.0283,0.0308,0.0193,0.0213,0.0163,0.012,0.0073,0.0076,-0.0005,-0.0129,-0.0041,0.0138,-0.0075,0.0051,0.0048,0.0046,0,0.011,0.0207,0.0285,0.0307,0.035,0.0385,0.0402,0.0413,0.0445,0.0483,0.0515,0.0509,0.0517,0.048,0.0381,0.0311,0.0409,0.0289,0.0236,0.0232,0.0179,0.0165,0.0163,0.0346,0.0345,0.0345,0.0345,0,0.0215,0.0279,0.0326,0.0371,0.0454,0.0459,0.054,0.0551,0.0596,0.0669,0.0624,0.069,0.0592,0.0604,0.0498,0.046,0.0513,0.032,0.0287,0.0244,0.0234,0.0018,-0.0136,0.035,0.0349,0.0348,0.0347,0,0.0274,0.031,0.0396,0.0463,0.0486,0.054,0.0608,0.0672,0.0707,0.0813,0.0838,0.0867,0.091,0.0814,0.077,0.0623,0.0452,0.0532,0.0498,0.0458,0.0166,0.0023,0.0018,-0.008,0.0512,0.0512,0.0513,0,0.0319,0.0375,0.0452,0.0496,0.0527,0.0606,0.0664,0.0715,0.0793,0.0926,0.0998,0.1073,0.116,0.1101,0.0893,0.0774,0.0529,0.0586,0.0432,0.021,0.0026,-0.0062,-0.0152,0.0452,0.0451,0.0451,0.0451,0,0.04,0.0413,0.0465,0.0548,0.0619,0.0715,0.0808,0.0885,0.0983,0.111,0.1289,0.1382,0.134,0.1244,0.1037,0.087,0.0403,0.0575,0.0361,0.0021,-0.0088,-0.022,0.0298,0.0449,0.0449,0.045,0.045,0.045,0.0437,0.0466,0.0518,0.0598,0.0691,0.0816,0.0915,0.1055,0.1226,0.1477,0.153,0.1788,0.1532,0.1277,0.0993,0.0427,0.043,0.0215,0.0081,0.0032,-0.0128,0.0399,0.048,0.048,0.048,0.0481,0.0481,0,0.0468,0.0495,0.0573,0.0667,0.0786,0.0826,0.1014,0.1167,0.1413,0.1725,0.1943,0.2052,0.1647,0.1203,0.0454,0.0022,-0.0166,-0.0241,-0.0396,-0.045,0.0048,-0.0027,-0.0074,-0.0073,-0.0073,-0.0073,-0.0073,-0.0073,0.0477,0.0526,0.056,0.0734,0.0823,0.1006,0.1129,0.1398,0.1674,0.2129,0.2414,0.2585,0.2237,0.0761,-0.026,-0.0523,-0.0822,-0.0874,-0.1011,-0.0735,-0.0704,-0.0674,-0.0778,-0.0981,-0.0982,-0.1459,-0.1465,-0.1469]}],[{"header":{"parameterUnit":"m.s-1","parameterCategory":2,"la1":30.2991,"la2":30.254,"lo1":-89.0895,"lo2":-89.0444,"dy":0.0017,"dx":0.0017,"nx":28,"ny":28,"refTime":"2023-10-20T21:00:00:Z","depth":"2","parameterNumber":2,"parameterNumberName":"U-component_of_CURRENTS"},"data":[0,0,0,0,0,0,0,0,0,0,0,0,0,0,0,0,0,0,0,0,0,0,0,0,0,0,0,0,0,0,0,0,0,0,0,0,0,0,0,0,0,0,0,0,0,0,0,0,0,0,0,0,0,0,0,0,0,0,0.2556,0.2557,0,0.2664,0.2665,0.2666,0.2641,0.2639,0.2637,0.2635,0.2676,0.2679,0.2682,0,0,0,0,0,0,0,0,0,0,0,0,0,0.2421,0.2423,0.2556,0.2557,0.2559,0.2664,0.2665,0.2666,0.2641,0.2639,0.2637,0.2634,0.2675,0.2678,0.2682,0,0,0,0,0,0,0,0,0,0,0,0,0,0.2498,0.2423,0.2556,0.256,0.2561,0.2663,0.2665,0.2667,0.2642,0.2639,0.2636,0.2633,0.2674,0.2678,0.2682,0.2768,0,0,0.2696,0.2698,0,0,0,0,0,0,0,0,0.2493,0.2503,0.2558,0.256,0.2562,0.2637,0.2633,0.2698,0.2642,0.261,0.2635,0.2632,0.266,0.2665,0.2691,0.277,0.2771,0.2696,0.2699,0.2701,0.2702,0,0,0,0,0,0,0,0.2488,0.2498,0.2597,0.256,0.2562,0.2588,0.2595,0.2645,0.2648,0.2612,0.2611,0.2626,0.266,0.2687,0.2692,0.2772,0.2696,0.27,0.2702,0.2704,0.2864,0.2866,0,0,0,0,0,0,0.2476,0.2493,0.2594,0.2601,0.2521,0.2593,0.26,0.2615,0.2649,0.2652,0.2629,0.2625,0.2681,0.2687,0.2693,0.2801,0.2701,0.2705,0.2707,0.2863,0.2865,0.2866,0,0,0,0,0,0,0.2473,0.2484,0.259,0.255,0.2565,0.2598,0.2615,0.2618,0.2661,0.2662,0.2663,0.2668,0.2679,0.2687,0.272,0.2801,0.2707,0.2711,0.2861,0.2863,0.2865,0.3014,0,0,0,0,0,0,0.2469,0.2482,0.2496,0.255,0.2567,0.2645,0.2618,0.2623,0.2674,0.267,0.2696,0.2696,0.2677,0.2713,0.2724,0.2806,0.2714,0.2859,0.2862,0.2865,0.3007,0.3021,0.3033,0,0,0,0,0,0.2463,0.2491,0.2496,0.2508,0.2582,0.2647,0.2659,0.2671,0.2679,0.2699,0.2702,0.2696,0.274,0.2718,0.2731,0.2816,0.2857,0.2861,0.2864,0.3001,0.3018,0.3033,0,0,0,0,0,0,0.2447,0.2494,0.2498,0.254,0.2587,0.2642,0.2677,0.2699,0.2728,0.2725,0.2723,0.2723,0.2769,0.2772,0.2748,0.2863,0.2798,0.2805,0.2898,0.2914,0.2927,0.2854,0.2718,0,0,0,0,0,0.245,0.2488,0.2529,0.2575,0.2596,0.265,0.2684,0.2696,0.2729,0.2741,0.2756,0.2773,0.28,0.2836,0.2834,0.2931,0.2929,0.2987,0.3,0.3012,0.2957,0.3034,0.305,0.2878,0.2878,0.2878,0,0,0.2469,0.2497,0.2523,0.2575,0.2619,0.2658,0.2663,0.2725,0.2761,0.2744,0.2798,0.2808,0.2822,0.2888,0.2917,0.2909,0.3075,0.3016,0.3027,0.2963,0.3039,0.3056,0.3071,0.2881,0.2881,0.288,0,0,0.2497,0.254,0.2559,0.2612,0.2668,0.2694,0.2718,0.2777,0.28,0.2859,0.2847,0.2873,0.2955,0.2956,0.2978,0.3066,0.3115,0.3124,0.3178,0.3258,0.3272,0.3285,0.3379,0.3398,0.3167,0.3168,0.3168,0,0.2512,0.2543,0.2582,0.262,0.2668,0.2712,0.2749,0.2797,0.2856,0.2884,0.2874,0.2961,0.2962,0.3049,0.3069,0.3094,0.3172,0.3132,0.3278,0.3289,0.3299,0.3392,0.3411,0.3175,0.3174,0.3173,0.3173,0,0.255,0.2587,0.2622,0.267,0.2718,0.2781,0.2832,0.2876,0.2915,0.2955,0.3029,0.3036,0.3085,0.3128,0.3128,0.3237,0.3282,0.3266,0.3243,0.3326,0.3418,0.3436,0.3186,0.3183,0.3181,0.3179,0,0,0.256,0.2625,0.2643,0.2663,0.2758,0.2795,0.2866,0.2929,0.2978,0.3042,0.3117,0.3158,0.3183,0.3199,0.3243,0.3309,0.3465,0.3347,0.3348,0.3449,0.3705,0.3586,0.3593,0.3535,0.3537,0.3538,0.3769,0,0.2579,0.2621,0.2667,0.2735,0.2758,0.2839,0.2896,0.2966,0.3029,0.311,0.3164,0.3235,0.3223,0.328,0.3348,0.3414,0.3509,0.3405,0.3595,0.3599,0.349,0.3606,0.332,0.3487,0.3786,0.3788,0.379,0,0.2591,0.2613,0.2654,0.2731,0.2755,0.2805,0.29,0.2969,0.3092,0.3154,0.3251,0.3307,0.3415,0.3385,0.3558,0.353,0.3612,0.3658,0.367,0.3488,0.3508,0.3434,0.3507,0.3819,0.3817,0.3815,0.3813,0,0.2554,0.2615,0.2633,0.2678,0.2762,0.2801,0.2863,0.2971,0.3044,0.3199,0.3285,0.3407,0.3513,0.3604,0.3707,0.368,0.3899,0.387,0.384,0.3836,0.3573,0.3539,0.3977,0.3976,0.3976,0.3975,0.3975,0,0.2559,0.2585,0.2605,0.2656,0.2692,0.2758,0.285,0.2939,0.3062,0.3177,0.3315,0.3415,0.3581,0.3731,0.378,0.3877,0.3978,0.3837,0.3877,0.3623,0.3592,0.3827,0.3807,0.3984,0.3982,0.398,0.3979,0,0.2513,0.2544,0.2579,0.2653,0.2689,0.2713,0.2869,0.2915,0.3059,0.3221,0.3288,0.349,0.3678,0.383,0.4005,0.3979,0.4053,0.4067,0.3763,0.3756,0.3926,0.3911,0.404,0.4037,0.4035,0.4033,0.4032,0,0.2491,0.2493,0.2589,0.2607,0.2646,0.2711,0.2768,0.2913,0.2986,0.3242,0.3309,0.3551,0.3676,0.3894,0.3914,0.4014,0.4091,0.3783,0.3591,0.3901,0.3929,0.3917,0.3905,0.3363,0.3356,0.3351,0.3346,0,0.2448,0.2481,0.251,0.256,0.2607,0.2682,0.2786,0.2845,0.3028,0.3133,0.3278,0.3379,0.3622,0.3569,0.3716,0.3705,0.3722,0.3665,0.4119,0.3354,0.327,0.3294,0.3304,0.3296,0.3301,0.3305,0.3307,0.3309,0.2431,0.2422,0.2469,0.2476,0.2556,0.2632,0.2642,0.2739,0.2826,0.2951,0.312,0.3183,0.3291,0.3318,0.3264,0.3246,0.3475,0.3324,0.3339,0.3361,0.3203,0.3115,0.3087,0.3091,0.3094,0.3097,0.3099,0,0.2346,0.2367,0.2391,0.2456,0.248,0.256,0.2621,0.2585,0.2608,0.2757,0.2824,0.2675,0.2681,0.2809,0.27,0.2699,0.2648,0.2594,0.2511,0.2566,0.2613,0.2412,0.209,0.2086,0.2083,0.2079,0,0,0.2315,0.2286,0.2268,0.2301,0.2384,0.2365,0.2349,0.2306,0.2338,0.2314,0.2319,0.2549,0.2712,0.2357,0.2328,0.219,0.2343,0.2102,0.2923,0.2879,0.2921,0.306,0.2817,0,0,0,0,0]},{"header":{"parameterUnit":"m.s-1","parameterCategory":2,"la1":30.2991,"la2":30.254,"lo1":-89.0895,"lo2":-89.0444,"dy":0.0017,"dx":0.0017,"nx":28,"ny":28,"refTime":"2023-10-20T21:00:00:Z","depth":"2","parameterNumber":3,"parameterNumberName":"V-component_of_CURRENTS"},"data":[0,0,0,0,0,0,0,0,0,0,0,0,0,0,0,0,0,0,0,0,0,0,0,0,0,0,0,0,0,0,0,0,0,0,0,0,0,0,0,0,0,0,0,0,0,0,0,0,0,0,0,0,0,0,0,0,0,0,0.0322,0.032,0,0.0177,0.0175,0.0174,0.0165,0.0166,0.0167,0.0168,0.002,0.0015,0.001,0,0,0,0,0,0,0,0,0,0,0,0,0,0.046,0.0459,0.0322,0.032,0.0317,0.0177,0.0175,0.0174,0.0164,0.0166,0.0167,0.0168,0.0022,0.0016,0.001,0,0,0,0,0,0,0,0,0,0,0,0,0,0.0371,0.0459,0.0322,0.0292,0.0287,0.0177,0.0175,0.0173,0.0164,0.0166,0.0168,0.0169,0.0024,0.0016,0.0009,-0.0073,0,0,-0.0014,-0.0018,0,0,0,0,0,0,0,0,0.0377,0.0367,0.0299,0.0294,0.0288,0.0186,0.0169,0.0089,0.0164,0.0216,0.0168,0.017,0.007,0.0059,0.0035,-0.008,-0.0086,-0.0015,-0.002,-0.0023,-0.0025,0,0,0,0,0,0,0,0.0383,0.0372,0.027,0.0296,0.029,0.024,0.0231,0.0154,0.0139,0.0212,0.0209,0.0185,0.0069,0.0043,0.0032,-0.0088,-0.0015,-0.0021,-0.0026,-0.0029,-0.0171,-0.017,0,0,0,0,0,0,0.0395,0.0379,0.0274,0.0265,0.0332,0.0237,0.0227,0.0221,0.014,0.0128,0.0183,0.0185,0.0055,0.0041,0.0026,-0.0002,-0.0023,-0.003,-0.0034,-0.0172,-0.0171,-0.017,0,0,0,0,0,0,0.0399,0.0388,0.028,0.0313,0.0295,0.0233,0.0226,0.0217,0.0194,0.0117,0.0107,0.0169,0.0056,0.0037,-0.0007,-0.0011,-0.0033,-0.004,-0.0172,-0.0171,-0.017,-0.0107,0,0,0,0,0,0,0.0404,0.0391,0.0401,0.0315,0.0294,0.0237,0.0224,0.0213,0.0173,0.0174,0.0101,0.0089,0.0055,0.0005,-0.0014,-0.0021,-0.0046,-0.0173,-0.0172,-0.0171,-0.011,-0.0103,-0.0098,0,0,0,0,0,0.041,0.0397,0.0403,0.039,0.0308,0.0237,0.0223,0.0186,0.0171,0.017,0.0134,0.0092,0.0001,-0.0001,-0.0024,-0.0033,-0.0174,-0.0172,-0.0171,-0.0112,-0.0105,-0.0098,0,0,0,0,0,0,0.0439,0.0392,0.0397,0.0368,0.0324,0.0234,0.0206,0.0181,0.0145,0.0145,0.0086,0.0072,0.004,-0.0008,-0.0008,-0.0064,-0.009,-0.0092,-0.0037,-0.0031,-0.0025,0.0023,-0.0052,0,0,0,0,0,0.0456,0.0449,0.0393,0.0368,0.0345,0.0278,0.0244,0.0223,0.0169,0.0155,0.0106,0.006,0.0024,-0.0009,-0.0046,-0.0104,-0.0128,-0.0117,-0.0111,-0.0106,-0.0079,-0.0127,-0.0123,-0.0164,-0.0164,-0.0164,0,0,0.0445,0.0427,0.0415,0.0376,0.0329,0.031,0.0264,0.0211,0.0207,0.0139,0.0115,0.0073,0.0018,-0.0013,-0.0034,-0.0055,-0.0106,-0.0104,-0.0099,-0.0074,-0.0125,-0.0121,-0.0118,-0.0163,-0.0163,-0.0163,0,0,0.0437,0.0416,0.0424,0.0394,0.0348,0.0314,0.0304,0.0232,0.022,0.0184,0.0153,0.0126,0.0036,0.0021,-0.0005,0.0002,-0.0065,-0.0029,0.002,-0.0028,-0.0025,-0.0022,-0.0041,-0.0041,-0.0037,-0.0037,-0.0037,0,0.0433,0.045,0.0408,0.0408,0.0387,0.0324,0.0325,0.029,0.0223,0.0223,0.0194,0.0117,0.0065,0.0047,0.006,0.0015,-0.002,-0.0006,-0.002,-0.0018,-0.0017,-0.0037,-0.0038,-0.0034,-0.0034,-0.0035,-0.0035,0,0.0439,0.0458,0.0439,0.0448,0.0421,0.0394,0.0353,0.034,0.0308,0.0284,0.0261,0.0195,0.0162,0.0128,0.009,0.0075,0.0046,-0.0,-0.0037,-0.0009,-0.0032,-0.0034,-0.0029,-0.003,-0.0031,-0.0032,0,0,0.0418,0.0449,0.0447,0.049,0.0445,0.043,0.042,0.0413,0.0437,0.0366,0.0386,0.0311,0.0279,0.0251,0.019,0.014,0.0115,0.0073,0.0069,0.0058,0.002,-0.0018,-0.0024,0.0046,0.0046,0.0046,0.0003,0,0.0446,0.05,0.0492,0.0533,0.0558,0.0515,0.0525,0.0511,0.0488,0.0493,0.042,0.0417,0.032,0.0315,0.0245,0.016,0.0111,0.0132,-0.0007,-0.0009,-0.0045,-0.0027,-0.0011,-0.005,0.0001,0.0,0.0,0,0.0469,0.0518,0.0578,0.0642,0.0643,0.066,0.0688,0.0689,0.0673,0.0658,0.0618,0.0561,0.0504,0.0414,0.0265,0.0273,0.0164,0.008,0.0075,0.0022,-0.0051,-0.0072,-0.0056,-0.0004,-0.0003,-0.0003,-0.0003,0,0.0514,0.0578,0.065,0.0655,0.0702,0.0737,0.0757,0.0754,0.0793,0.0778,0.0813,0.0697,0.0683,0.0508,0.0328,0.0292,0.0161,0.0088,-0.0045,-0.0048,-0.0065,-0.007,-0.0011,-0.0011,-0.0011,-0.001,-0.001,0,0.0552,0.061,0.0697,0.0726,0.0833,0.0828,0.0924,0.0921,0.0958,0.1036,0.0918,0.095,0.0702,0.059,0.0385,0.0177,0.02,-0.0014,-0.0062,-0.0042,-0.0044,-0.0031,-0.0033,-0.0012,-0.0012,-0.0011,-0.0011,0,0.0589,0.0635,0.0736,0.0823,0.086,0.0939,0.1046,0.1126,0.114,0.1239,0.1251,0.1157,0.1001,0.075,0.0493,0.0288,0.0073,-0.0008,0.0048,0.0007,-0.0119,-0.0117,-0.0161,-0.0162,-0.0164,-0.0165,-0.0166,0,0.0627,0.0683,0.0804,0.0879,0.0931,0.1053,0.1147,0.1208,0.1303,0.1373,0.1439,0.1332,0.1247,0.0858,0.0483,0.0128,0.0086,-0.0074,-0.0148,-0.0092,-0.0134,-0.013,-0.0126,-0.0138,-0.0139,-0.014,-0.014,0,0.0707,0.074,0.0821,0.0965,0.1093,0.1238,0.138,0.149,0.1583,0.1649,0.1708,0.1645,0.1285,0.0907,0.0433,0.0187,-0.0028,-0.0099,-0.005,-0.0108,-0.0076,-0.0116,-0.0112,-0.0145,-0.0145,-0.0144,-0.0144,-0.0144,0.0768,0.0846,0.0945,0.1087,0.1218,0.1408,0.1548,0.1693,0.1848,0.1941,0.1882,0.1761,0.1377,0.0723,0.0348,-0.0056,-0.0064,-0.0219,-0.0215,-0.0211,-0.0206,-0.0179,-0.0264,-0.0264,-0.0264,-0.0265,-0.0265,0,0.0867,0.0943,0.1064,0.1234,0.1375,0.1439,0.169,0.1817,0.1993,0.2019,0.2008,0.1609,0.1202,0.0775,0.0167,-0.019,-0.0215,-0.0293,-0.0242,-0.0235,-0.023,-0.0224,-0.0289,-0.0289,-0.029,-0.0291,0,0,0.0933,0.1069,0.1132,0.1365,0.1459,0.1679,0.1836,0.1985,0.2055,0.2046,0.1939,0.1789,0.128,0.0853,0.0382,0.005,-0.0009,-0.002,0.0029,0.015,0.016,-0.0169,-0.0152,0,0,0,0,0]}],[{"header":{"parameterUnit":"m.s-1","parameterCategory":2,"la1":30.2991,"la2":30.254,"lo1":-89.0895,"lo2":-89.0444,"dy":0.0017,"dx":0.0017,"nx":28,"ny":28,"refTime":"2023-10-20T21:00:00:Z","depth":"4","parameterNumber":2,"parameterNumberName":"U-component_of_CURRENTS"},"data":[0,0,0,0,0,0,0,0,0,0,0,0,0,0,0,0,0,0,0,0,0,0,0,0,0,0,0,0,0,0,0,0,0,0,0,0,0,0,0,0,0,0,0,0,0,0,0,0,0,0,0,0,0,0,0,0,0,0,0.1283,0.1284,0,0.1364,0.1365,0.1365,0.1377,0.1377,0.1377,0.1377,0.147,0.1472,0.1475,0,0,0,0,0,0,0,0,0,0,0,0,0,0.1156,0.1158,0.1282,0.1284,0.1286,0.1364,0.1365,0.1365,0.1377,0.1377,0.1377,0.1377,0.1469,0.1472,0.1475,0,0,0,0,0,0,0,0,0,0,0,0,0,0.1216,0.1158,0.1282,0.1306,0.1309,0.1364,0.1365,0.1365,0.1378,0.1377,0.1377,0.1377,0.1468,0.1471,0.1475,0.1504,0,0,0.1487,0.1489,0,0,0,0,0,0,0,0,0.1212,0.1219,0.1301,0.1304,0.1308,0.1366,0.1355,0.1415,0.1378,0.1345,0.1377,0.1377,0.144,0.1446,0.1453,0.1509,0.1513,0.1488,0.149,0.1492,0.1493,0,0,0,0,0,0,0,0.1208,0.1216,0.1308,0.1303,0.1307,0.132,0.1327,0.1366,0.1388,0.1348,0.135,0.137,0.1441,0.1449,0.1456,0.1514,0.1488,0.1491,0.1493,0.1495,0.1657,0.1659,0,0,0,0,0,0,0.121,0.1212,0.1306,0.1312,0.1266,0.1322,0.133,0.1343,0.1388,0.1396,0.137,0.137,0.1443,0.1451,0.1459,0.1559,0.1492,0.1495,0.1498,0.1655,0.1658,0.166,0,0,0,0,0,0,0.1207,0.1217,0.1303,0.1269,0.1282,0.1325,0.1339,0.1344,0.138,0.1406,0.1413,0.1403,0.1443,0.1453,0.1518,0.156,0.1497,0.1501,0.1653,0.1656,0.1659,0.1718,0,0,0,0,0,0,0.1203,0.1215,0.124,0.1269,0.1284,0.1346,0.134,0.1346,0.1394,0.1395,0.1437,0.1443,0.1443,0.1512,0.1522,0.1564,0.1504,0.165,0.1654,0.1658,0.1714,0.1723,0.1731,0,0,0,0,0,0.1198,0.1228,0.124,0.1253,0.1311,0.1348,0.1356,0.1381,0.1396,0.1412,0.1448,0.1443,0.1542,0.1517,0.1528,0.1573,0.1649,0.1653,0.1657,0.171,0.1721,0.1731,0,0,0,0,0,0,0.1188,0.1233,0.1247,0.1291,0.1324,0.1352,0.1387,0.1403,0.1444,0.1461,0.1473,0.1483,0.1553,0.1559,0.1531,0.163,0.1593,0.16,0.163,0.164,0.1649,0.1629,0.1507,0,0,0,0,0,0.1199,0.123,0.127,0.1306,0.1331,0.1366,0.1393,0.1411,0.1448,0.1467,0.1505,0.1544,0.1577,0.1605,0.1636,0.1698,0.1708,0.1732,0.174,0.1747,0.174,0.1812,0.1826,0.1674,0.1674,0.1674,0,0,0.1206,0.1237,0.1256,0.1307,0.134,0.1379,0.138,0.1434,0.1469,0.1473,0.1554,0.1582,0.16,0.1662,0.1694,0.1675,0.1797,0.1753,0.1759,0.1747,0.1818,0.1832,0.1845,0.1677,0.1677,0.1676,0,0,0.1225,0.1266,0.1296,0.1332,0.1393,0.1413,0.1436,0.1493,0.1524,0.1595,0.1607,0.1656,0.1727,0.1737,0.1749,0.1825,0.184,0.1852,0.1882,0.1953,0.1966,0.1977,0.201,0.2024,0.1856,0.1856,0.1856,0,0.1242,0.1269,0.131,0.1352,0.1389,0.1433,0.1472,0.1512,0.1584,0.1621,0.163,0.1739,0.1751,0.1808,0.1826,0.1843,0.1883,0.1841,0.1964,0.1976,0.1986,0.2017,0.2031,0.186,0.1859,0.1859,0.1859,0,0.1267,0.1306,0.1333,0.1393,0.1441,0.1483,0.1545,0.1606,0.1658,0.1693,0.1785,0.1813,0.1873,0.1887,0.1877,0.1962,0.1966,0.1967,0.1935,0.2005,0.2033,0.2047,0.1865,0.1863,0.1862,0.1861,0,0,0.1261,0.1333,0.1349,0.1377,0.1466,0.1503,0.1586,0.1655,0.1713,0.1793,0.1866,0.1915,0.195,0.1964,0.1978,0.2022,0.2119,0.2032,0.2034,0.2058,0.2273,0.2123,0.2124,0.2166,0.2169,0.2171,0.2263,0,0.1267,0.1332,0.1373,0.1441,0.1477,0.1553,0.162,0.1702,0.1773,0.1862,0.191,0.1989,0.1976,0.2023,0.2068,0.2112,0.216,0.2092,0.2207,0.2209,0.2063,0.2136,0.218,0.2273,0.2276,0.2278,0.228,0,0.1273,0.1313,0.1374,0.1456,0.1485,0.154,0.1661,0.1731,0.1854,0.1918,0.2011,0.2064,0.2146,0.2128,0.2243,0.2216,0.2249,0.2268,0.2274,0.2116,0.2084,0.219,0.2305,0.2303,0.2301,0.2299,0.2298,0,0.1232,0.1315,0.1357,0.139,0.1493,0.1549,0.1625,0.1753,0.1825,0.1974,0.2048,0.2153,0.2229,0.2298,0.2346,0.2325,0.246,0.2436,0.2327,0.2317,0.2396,0.2383,0.252,0.252,0.2519,0.2519,0.2519,0,0.1203,0.124,0.1343,0.1368,0.1436,0.1537,0.1631,0.1728,0.1869,0.1957,0.2084,0.216,0.2286,0.2374,0.2396,0.2402,0.2515,0.2334,0.2337,0.2418,0.2407,0.2406,0.2391,0.2523,0.2522,0.2521,0.2521,0,0.1133,0.1199,0.1255,0.1372,0.1413,0.1477,0.1631,0.1692,0.1853,0.1979,0.2042,0.2208,0.2318,0.2409,0.2517,0.2453,0.2478,0.2454,0.2531,0.2536,0.227,0.2258,0.2329,0.2325,0.2321,0.2318,0.2315,0,0.109,0.1111,0.1247,0.1285,0.1335,0.1439,0.1499,0.1669,0.1744,0.198,0.2027,0.22,0.2292,0.2329,0.2418,0.2464,0.2435,0.2426,0.2331,0.2258,0.2255,0.2248,0.2242,0.2309,0.2308,0.2307,0.2307,0,0.1004,0.1071,0.1121,0.1197,0.1267,0.1339,0.1455,0.1504,0.1704,0.1861,0.1984,0.206,0.2173,0.224,0.2303,0.2322,0.2416,0.2386,0.2393,0.2303,0.2236,0.2234,0.2232,0.2294,0.2295,0.2297,0.2297,0,0.0948,0.0956,0.1032,0.1088,0.1172,0.1219,0.1301,0.1404,0.1508,0.1784,0.1811,0.1998,0.2153,0.2168,0.2219,0.2236,0.219,0.2107,0.2127,0.2142,0.2035,0.1919,0.1888,0,0,0,0,0,0.0882,0.087,0.091,0.0969,0.1052,0.1109,0.125,0.134,0.154,0.1586,0.1708,0.1812,0.1907,0.1988,0.1967,0.2106,0.2178,0.2069,0.2086,0.2222,0.2237,0.2127,0,0,0,0,0,0,0.083,0.0857,0.086,0.0856,0.0884,0.0957,0.1056,0.1197,0.1246,0.1462,0.1527,0.1688,0.1802,0.1904,0.1927,0.1952,0.1923,0.2185,0.218,0.2214,0.2227,0.2239,0.2131,0,0,0,0,0]},{"header":{"parameterUnit":"m.s-1","parameterCategory":2,"la1":30.2991,"la2":30.254,"lo1":-89.0895,"lo2":-89.0444,"dy":0.0017,"dx":0.0017,"nx":28,"ny":28,"refTime":"2023-10-20T21:00:00:Z","depth":"4","parameterNumber":3,"parameterNumberName":"V-component_of_CURRENTS"},"data":[0,0,0,0,0,0,0,0,0,0,0,0,0,0,0,0,0,0,0,0,0,0,0,0,0,0,0,0,0,0,0,0,0,0,0,0,0,0,0,0,0,0,0,0,0,0,0,0,0,0,0,0,0,0,0,0,0,0,0.0381,0.0381,0,0.0303,0.0302,0.0301,0.0272,0.0272,0.0273,0.0273,0.0171,0.0168,0.0165,0,0,0,0,0,0,0,0,0,0,0,0,0,0.0422,0.0422,0.0381,0.038,0.0379,0.0303,0.0302,0.0301,0.0272,0.0272,0.0273,0.0273,0.0172,0.0169,0.0165,0,0,0,0,0,0,0,0,0,0,0,0,0,0.0381,0.0422,0.0382,0.0356,0.0353,0.0303,0.0302,0.0301,0.0272,0.0272,0.0273,0.0273,0.0173,0.0169,0.0165,0.013,0,0,0.0151,0.0149,0,0,0,0,0,0,0,0,0.0383,0.0379,0.0361,0.0357,0.0354,0.0297,0.0279,0.0242,0.0272,0.0303,0.0273,0.0273,0.0211,0.0203,0.0188,0.0126,0.0121,0.0151,0.0148,0.0146,0.0145,0,0,0,0,0,0,0,0.0386,0.0382,0.0351,0.0359,0.0355,0.0319,0.0314,0.0272,0.0256,0.03,0.0298,0.0289,0.0209,0.0193,0.0186,0.012,0.0151,0.0147,0.0144,0.0143,0.0044,0.0044,0,0,0,0,0,0,0.0399,0.0385,0.0353,0.0348,0.0369,0.0318,0.0313,0.0315,0.0256,0.0248,0.0288,0.0288,0.02,0.0191,0.0182,0.0157,0.0146,0.0142,0.014,0.0044,0.0044,0.0044,0,0,0,0,0,0,0.0401,0.0398,0.0356,0.0364,0.0356,0.0318,0.032,0.0314,0.0304,0.0248,0.0239,0.0286,0.02,0.0188,0.0159,0.0152,0.014,0.0136,0.0044,0.0044,0.0044,0.0095,0,0,0,0,0,0,0.0403,0.0399,0.0408,0.0365,0.0356,0.0332,0.032,0.0312,0.0297,0.0295,0.0242,0.0233,0.0199,0.0166,0.0154,0.0146,0.0133,0.0044,0.0044,0.0044,0.0093,0.0097,0.01,0,0,0,0,0,0.0404,0.0406,0.0409,0.0405,0.0369,0.0332,0.0324,0.0297,0.0297,0.0291,0.0265,0.0235,0.0158,0.0162,0.0149,0.0139,0.0044,0.0044,0.0044,0.0092,0.0096,0.0099,0,0,0,0,0,0,0.0413,0.0402,0.0404,0.04,0.0375,0.0327,0.0316,0.0303,0.0277,0.0278,0.0235,0.0223,0.0192,0.0161,0.0168,0.0112,0.0095,0.0093,0.0136,0.0139,0.0143,0.0155,0.0129,0,0,0,0,0,0.0425,0.0431,0.0406,0.0401,0.0393,0.036,0.0343,0.0327,0.0296,0.0285,0.0252,0.0215,0.0179,0.0159,0.0121,0.009,0.0053,0.0075,0.0078,0.0081,0.0083,0.003,0.0029,0.0044,0.0044,0.0044,0,0,0.0422,0.0419,0.042,0.0405,0.0383,0.0372,0.0351,0.0327,0.0319,0.0277,0.0258,0.0223,0.0174,0.0143,0.0126,0.0118,0.0057,0.0081,0.0084,0.0084,0.003,0.0028,0.0027,0.0044,0.0044,0.0044,0,0,0.0417,0.0423,0.0429,0.0418,0.0397,0.0377,0.0376,0.0341,0.033,0.0306,0.0277,0.0245,0.0189,0.0156,0.0131,0.0128,0.0076,0.0114,0.0137,0.0086,0.0084,0.0082,0.0034,0.0028,0.0115,0.0115,0.0116,0,0.0415,0.0431,0.0419,0.0421,0.0417,0.0386,0.0388,0.0364,0.0325,0.032,0.0308,0.0234,0.0194,0.0156,0.0157,0.0134,0.0099,0.0128,0.009,0.0088,0.0085,0.0036,0.0028,0.0118,0.0118,0.0117,0.0117,0,0.0416,0.0434,0.043,0.0437,0.0427,0.0419,0.0396,0.0386,0.0372,0.0348,0.0315,0.0261,0.0222,0.0199,0.0176,0.0137,0.0117,0.0101,0.0083,0.0086,0.0034,0.0025,0.0121,0.0121,0.012,0.0119,0,0,0.0403,0.0431,0.0434,0.046,0.0444,0.0439,0.0427,0.0413,0.0418,0.0369,0.0363,0.0296,0.0273,0.0244,0.0205,0.0157,0.0106,0.0127,0.0124,0.0084,-0.0007,-0.0015,-0.0027,0.0084,0.0083,0.0082,-0.0035,0,0.0414,0.0444,0.0448,0.0475,0.0494,0.0478,0.0478,0.046,0.0436,0.0419,0.0358,0.0334,0.0287,0.0278,0.022,0.0138,0.0084,0.014,-0.0009,-0.0013,-0.0017,-0.0037,0.0078,-0.0042,-0.0044,-0.0046,-0.0047,0,0.0426,0.0452,0.0489,0.0535,0.054,0.0552,0.0564,0.0559,0.052,0.0502,0.0455,0.0405,0.0335,0.0298,0.0147,0.0185,0.0096,0.0024,0.0017,-0.0014,-0.0038,-0.0048,-0.0064,-0.0063,-0.0062,-0.006,-0.0059,0,0.0453,0.0489,0.0533,0.0544,0.0572,0.0598,0.0613,0.0592,0.061,0.0563,0.0562,0.0456,0.0422,0.0288,0.0138,0.0144,-0.0036,-0.0048,-0.0147,-0.0149,-0.0128,-0.0125,-0.0162,-0.0162,-0.0162,-0.0161,-0.0161,0,0.0478,0.0518,0.0562,0.059,0.0653,0.0654,0.071,0.0702,0.0699,0.0718,0.0622,0.0599,0.0418,0.0294,0.0148,-0.0029,-0.0033,-0.015,-0.0182,-0.0104,-0.0097,-0.0135,-0.013,-0.0166,-0.0165,-0.0164,-0.0163,0,0.0508,0.0534,0.0597,0.0648,0.0678,0.0726,0.0803,0.0835,0.0821,0.084,0.0834,0.0709,0.0539,0.0342,0.0117,0.0,-0.0178,-0.0241,-0.0144,-0.0168,-0.0259,-0.0251,-0.036,-0.0361,-0.0362,-0.0363,-0.0364,0,0.0531,0.0564,0.0648,0.07,0.0737,0.0816,0.0874,0.09,0.0933,0.0902,0.091,0.0762,0.065,0.0329,0.011,-0.0183,-0.0221,-0.0308,-0.0287,-0.0261,-0.0281,-0.0271,-0.0261,-0.0366,-0.0366,-0.0367,-0.0367,0,0.0569,0.0599,0.0649,0.0754,0.0838,0.0925,0.1008,0.1045,0.1061,0.105,0.0975,0.0801,0.06,0.0333,0.0102,-0.0107,-0.0249,-0.0321,-0.032,-0.0301,-0.027,-0.0286,-0.0275,-0.0371,-0.037,-0.037,-0.037,0,0.0599,0.0638,0.0709,0.0803,0.0909,0.1004,0.1046,0.1085,0.1119,0.1081,0.1047,0.0826,0.0694,0.0371,0.0155,-0.0053,-0.0103,-0.0154,-0.0162,-0.0161,-0.0071,-0.0,-0.0052,0,0,0,0,0,0.0614,0.0663,0.0753,0.0852,0.0955,0.1025,0.1119,0.1145,0.1163,0.1127,0.1094,0.0903,0.0575,0.0422,0.0213,0.0121,-0.0148,-0.0131,-0.0212,-0.0392,-0.0388,-0.0318,0,0,0,0,0,0,0.0624,0.0704,0.0751,0.0883,0.0957,0.1076,0.1146,0.1158,0.1135,0.1113,0.0939,0.0855,0.0529,0.0692,0.0208,0.0141,0.0064,-0.0288,-0.0292,-0.0395,-0.0391,-0.0387,-0.0314,0,0,0,0,0]}]]